Powrót do katalogu

BISONSAT

AktywnyNaukaLEO
NORAD 40968·PAYLOAD·🇺🇸 United States

Wystrzelony Oct 8, 2015 z Vandenberg Space Force Base

Loading…

Następne Przeloty (najbliższe 24 godziny)

TLE

ŚwieżeSource: Space-Track

Epoka: Sep 14, 2026, 05:48 UTC

1 40968U 15058E   26257.24176433  .00002006  00000-0  16367-3 0  9992
2 40968  64.7764 339.8824 0126977  19.4062 341.1822 14.96496782129980

Śledź BISONSAT w czasie rzeczywistym z AllMySat

Download on the App Store